Regional Weather Roundup
Issued by NWS

Home | Current Version | Previous Version | Text Only | Print | Product List | Glossary On
Versions: 1 2 3 4 5 6 7 8 9 10 11 12 13 14 15 16 17 18 19 20 21 22 23 24 25 26 27 28 29 30 31 32 33 34 35 36 37 38 39 40 41 42 43 44 45 46 47 48 49 50
000
ASUS43 KLMK 300910
RWRKY
KENTUCKY REGIONAL WEATHER ROUNDUP
NATIONAL WEATHER SERVICE LOUISVILLE KY
500 AM EDT TUE JUN 30 2015

NOTE "FAIR" INDICATES FEW OR NO CLOUDS BELOW 12,000 FEET
WITH NO SIGNIFICANT WEATHER AND/OR OBSTRUCTIONS TO VISIBILITY.

KYZ001>023-026-027-061>063-070>075-301000-
WESTERN AND SOUTH CENTRAL KENTUCKY

CITY           SKY/WX    TMP DP  RH WIND       PRES   REMARKS
PADUCAH        CLEAR     69  66  90 SW3       29.86S
HENDERSON      CLOUDY    66  64  94 NW8       29.86S
OWENSBORO      PTCLDY    68  66  93 CALM      29.87R
HOPKINSVILLE   CLEAR     69  67  94 SW1       29.88R
BOWLING GREEN  CLEAR     69  65  86 W3        29.89R
GLASGOW        CLEAR     67  67 100 CALM      29.90R
$$

KYZ024-025-028>034-038-045-046-053-301000-
NORTH CENTRAL KENTUCKY

CITY           SKY/WX    TMP DP  RH WIND       PRES   REMARKS
LOUISVILLE/SDF PTCLDY    71  63  75 SW7       29.86R
LOUISVILLE/LOU CLEAR     67  63  87 S3        29.87R
FORT KNOX      CLEAR     63  61  94 S3        29.87R
$$

KYZ035>037-039>044-047>052-055>060-089>105-301000-
NORTHEAST KENTUCKY

CITY           SKY/WX    TMP DP  RH WIND       PRES   REMARKS
LEXINGTON      CLEAR     66  64  93 S8        29.89S
COVINGTON      CLEAR     65  63  93 SW5       29.84R
FRANKFORT      CLEAR     64  62  93 SW5       29.87R
$$

KYZ054-064>069-076>088-106>120-301000-
SOUTHEAST KENTUCKY

CITY           SKY/WX    TMP DP  RH WIND       PRES   REMARKS
JACKSON        CLOUDY    66  63  90 CALM      29.91F
LONDON         CLOUDY    67  61  81 CALM      29.91F
SOMERSET       PTCLDY    63  63 100 CALM      29.92F
MIDDLESBORO    CLOUDY    65  65 100 CALM      29.91F
MONTICELLO     CLOUDY    65  65 100 CALM      29.94F
$$




USA.gov is the U.S. government's official web portal to all federal, state and local government web resources and services.